N3WKE Weather Reports


time (UTC)temp
C
wind
direction
speed
KPH
gust
KPH
rain 1hr
cm
rain 24hr
cm
rain mn
cm
humidity
%
barometer
mb
20260505113039 16 253 0.0 6.4 0.00 0.00 0.00 66 1010.5
20260505111551 16 255 0.0 1.6 0.00 0.00 0.00 66 1010.3
20260505101511 15 245 0.0 3.2 0.00 0.00 0.00 66 1009.7
20260505100037 15 246 0.0 8.0 0.00 0.00 0.00 67 1009.6
20260505094502 15 258 0.0 0.0 0.00 0.00 0.00 67 1009.4
20260505093055 15 248 0.0 1.6 0.00 0.00 0.00 67 1009.4
20260505091601 15 247 0.0 9.7 0.00 0.00 0.00 66 1009.4
20260505090041 15 246 0.0 1.6 0.00 0.00 0.00 66 1009.3
20260505084505 15 249 0.0 1.6 0.00 0.00 0.00 66 1009.4
20260505083028 15 252 0.0 0.0 0.00 0.00 0.00 65 1009.3
20260505081604 16 250 0.0 0.0 0.00 0.00 0.00 64 1009.4
20260505080045 16 244 0.0 0.0 0.00 0.00 0.00 64 1009.4
20260505074508 16 262 0.0 1.6 0.00 0.00 0.00 63 1009.3
20260505073039 16 237 0.0 0.0 0.00 0.00 0.00 65 1009.2
20260505071503 15 261 0.0 0.0 0.00 0.00 0.00 66 1009.2
20260505070027 15 261 0.0 0.0 0.00 0.00 0.00 67 1009.2
20260505064553 15 263 0.0 0.0 0.00 0.00 0.00 67 1009.1
20260505063043 15 263 0.0 0.0 0.00 0.00 0.00 66 1009.1
20260505061552 15 262 0.0 0.0 0.00 0.00 0.00 65 1009.1
20260505060036 16 261 0.0 0.0 0.00 0.00 0.00 64 1009.2
20260505054555 16 261 0.0 0.0 0.00 0.00 0.00 64 1009.2
20260505053025 16 258 0.0 0.0 0.00 0.00 0.00 62 1009.3
20260505051604 17 254 0.0 0.0 0.00 0.00 0.00 60 1009.4
20260505041546 17 249 0.0 0.0 0.00 0.00 0.00 58 1009.1
20260505040041 17 238 0.0 0.0 0.00 0.00 0.00 57 1009.2
20260505034551 17 236 0.0 0.0 0.00 0.00 0.00 57 1009.2
20260505033042 18 235 0.0 0.0 0.00 0.00 0.00 56 1009.2
20260505031556 18 235 0.0 0.0 0.00 0.00 0.00 55 1009.1
20260505030045 18 233 0.0 0.0 0.00 0.00 0.00 54 1009.0
20260505024557 18 244 0.0 0.0 0.00 0.00 0.00 54 1009.1
20260505023039 18 219 0.0 9.7 0.00 0.00 0.00 54 1009.0
20260505021552 19 241 0.0 6.4 0.00 0.00 0.00 53 1009.1
20260505020029 19 224 0.0 0.0 0.00 0.00 0.00 53 1009.0
20260505014558 19 232 0.0 1.6 0.00 0.00 0.00 54 1008.9
20260505013028 19 217 0.0 3.2 0.00 0.00 0.00 54 1008.7
20260505011626 19 215 0.0 1.6 0.00 0.00 0.00 54 1008.7
20260505010039 19 178 0.0 0.0 0.00 0.00 0.00 54 1008.6
20260505004548 19 172 0.0 1.6 0.00 0.00 0.00 53 1008.5
20260505003040 20 171 0.0 0.0 0.00 0.00 0.00 52 1008.5
20260505001547 20 171 0.0 0.0 0.00 0.00 0.00 51 1008.4
20260505000052 20 157 0.0 0.0 0.00 0.00 0.00 49 1008.3
20260504234549 20 171 0.0 0.0 0.00 0.00 0.00 48 1008.3
20260504233046 21 153 0.0 3.2 0.00 0.00 0.00 47 1008.3
20260504231555 21 146 0.0 4.8 0.00 0.00 0.00 47 1008.4
20260504230033 21 153 0.0 11.3 0.00 0.00 0.00 46 1008.4
20260504224559 22 221 0.0 3.2 0.00 0.00 0.00 45 1008.4
20260504223030 22 222 0.0 8.0 0.00 0.00 0.00 44 1008.1
20260504221502 23 131 0.0 14.5 0.00 0.00 0.00 43 1008.1
20260504220044 23 159 0.0 16.1 0.00 0.00 0.00 41 1008.1
20260504214555 25 248 4.8 24.1 0.00 0.00 0.00 36 1008.2
20260504213043 25 223 1.6 19.3 0.00 0.00 0.00 35 1008.2
20260504211659 24 234 0.0 24.1 0.00 0.00 0.00 35 1008.1
20260504210042 24 272 0.0 16.1 0.00 0.00 0.00 36 1008.2
20260504204552 24 166 0.0 11.3 0.00 0.00 0.00 35 1008.4
20260504203037 23 111 1.6 20.9 0.00 0.00 0.00 37 1008.6
20260504201606 23 182 0.0 24.1 0.00 0.00 0.00 38 1008.6
20260504200029 24 259 0.0 14.5 0.00 0.00 0.00 37 1008.8
20260504194600 23 236 0.0 16.1 0.00 0.00 0.00 38 1009.1
20260504193031 23 263 0.0 12.9 0.00 0.00 0.00 38 1009.3
20260504191501 23 272 6.4 27.4 0.00 0.00 0.00 37 1009.8
20260504190039 23 234 3.2 19.3 0.00 0.00 0.00 36 1009.9
20260504184602 22 208 0.0 20.9 0.00 0.00 0.00 37 1010.2
20260504183042 22 259 1.6 20.9 0.00 0.00 0.00 36 1010.3
20260504181653 22 154 0.0 14.5 0.00 0.00 0.00 36 1010.4
20260504180027 22 261 3.2 16.1 0.00 0.00 0.00 36 1010.7
20260504174555 22 223 0.0 17.7 0.00 0.00 0.00 37 1010.8
20260504173044 22 245 1.6 17.7 0.00 0.00 0.00 37 1011.0
20260504171602 22 266 0.0 17.7 0.00 0.00 0.00 37 1011.2